Change the Weather History Date:

Friday, February 14, 2014

  Actual Average Record
Temperature  
Mean Temperature 52 °F -  
Max Temperature 70 °F 62 °F 75 °F (2000)
Min Temperature 33 °F 43 °F 30 °F (2006)
Degree Days  
Heating Degree Days 14    
Growing Degree Days 2 (Base 50)    
Moisture  
Dew Point 41 °F    
Average Humidity 83    
Maximum Humidity 100    
Minimum Humidity 37    
Precipitation  
Precipitation 0.00 in - - ()
Sea Level Pressure  
Sea Level Pressure 29.92 in    
Wind  
Wind Speed 3 mph (SW)    
Max Wind Speed 16 mph    
Max Gust Speed 30 mph    
Visibility 6 miles    
Events Fog    
Averages and records for this station are not official NWS values.
T = Trace of Precipitation, MM = Missing Value Source: NWS Daily Summary

Daily Weather History Graph

Daily Weather History Graph

Search for Another Location

Airport or City:

Trip Planner

Search our weather history database for the weather conditions in past years. The results will help you decide how hot, cold, wet, or windy it might be!

Date:

Astronomy

Feb. 14, 2014 Rise Set
Actual Time 6:54 AM CST 5:59 PM CST
Civil Twilight 6:29 AM CST 6:24 PM CST
Nautical Twilight 6:01 AM CST 6:52 PM CST
Astronomical Twilight 5:33 AM CST 7:20 PM CST
Moon 6:00 PM CST (2/14) 6:24 AM CST (2/14)
Length of Visible Light 11h 54m
Length of Day
11h 04m
Full, 100% of the Moon is Illuminated
Feb 14
Full
Feb 14
Full
Feb 22
Last Quarter
Mar 1
New
Mar 8
First Quarter

Hourly Weather History & Observations

Time (CST) Temp. Windchill Dew Point Humidity Pressure Visibility Wind Dir Wind Speed Gust Speed Precip Events Conditions
12:55 AM 39.9 °F - 37.0 °F 89% 29.99 in 10.0 mi Calm Calm - N/A   Clear
1:32 AM 35.6 °F - 35.6 °F 100% 29.95 in 1.2 mi Calm Calm - N/A   Clear
1:34 AM 35.6 °F - 35.6 °F 100% 29.95 in 0.8 mi Calm Calm - N/A   Clear
1:44 AM 35.6 °F - 35.6 °F 100% 29.95 in 1.2 mi Calm Calm - N/A   Clear
1:47 AM 35.6 °F - 35.6 °F 100% 29.95 in 2.0 mi Calm Calm - N/A   Clear
1:55 AM 36.0 °F - 35.1 °F 97% 29.97 in 4.0 mi Calm Calm - N/A   Clear
2:11 AM 33.8 °F 29.6 °F 33.8 °F 100% 29.93 in 1.8 mi SSE 4.6 mph - N/A   Clear
2:20 AM 35.6 °F - 33.8 °F 93% 29.93 in 3.0 mi Calm Calm - N/A   Clear
2:55 AM 39.9 °F - 39.0 °F 97% 29.95 in 7.0 mi Calm Calm - N/A   Clear
3:55 AM 39.0 °F - 37.9 °F 96% 29.95 in 6.0 mi Calm Calm - N/A   Clear
4:39 AM 33.8 °F - 33.8 °F 100% 29.93 in 2.5 mi Calm Calm - N/A   Partly Cloudy
4:48 AM 35.6 °F - 33.8 °F 93% 29.92 in 1.5 mi Calm Calm - N/A   Mostly Cloudy
4:55 AM 35.1 °F - 34.0 °F 96% 29.94 in 3.0 mi Calm Calm - N/A   Mostly Cloudy
5:13 AM 35.6 °F - 35.6 °F 100% 29.92 in 1.5 mi Calm Calm - N/A   Overcast
5:15 AM 37.4 °F - 35.6 °F 93% 29.92 in 0.8 mi Calm Calm - N/A   Mist
5:19 AM 37.4 °F - 35.6 °F 93% 29.92 in 0.2 mi Calm Calm - N/A Fog Fog
5:55 AM 39.0 °F - 39.0 °F 100% 29.94 in 0.2 mi Calm Calm - N/A Fog Fog
6:07 AM 39.2 °F 37.0 °F 39.2 °F 100% 29.92 in 0.2 mi South 3.5 mph - N/A Fog Fog
6:20 AM 41.0 °F 38.0 °F 39.2 °F 93% 29.92 in 0.8 mi South 4.6 mph - N/A   Mist
6:25 AM 41.0 °F 39.0 °F 39.2 °F 93% 29.91 in 1.0 mi South 3.5 mph - N/A   Mist
6:31 AM 39.2 °F - 39.2 °F 100% 29.91 in 1.5 mi Calm Calm - N/A   Mostly Cloudy
6:37 AM 41.0 °F - 41.0 °F 100% 29.91 in 3.0 mi Calm Calm - N/A   Mostly Cloudy
6:45 AM 41.0 °F - 41.0 °F 100% 29.91 in 4.0 mi Calm Calm - N/A   Scattered Clouds
6:55 AM 42.1 °F 40.2 °F 41.0 °F 96% 29.92 in 3.0 mi South 3.5 mph - N/A   Clear
7:22 AM 44.6 °F 42.2 °F 42.8 °F 93% 29.91 in 8.0 mi South 4.6 mph - N/A   Mostly Cloudy
7:55 AM 46.0 °F 42.5 °F 45.0 °F 96% 29.91 in 10.0 mi South 6.9 mph - N/A   Overcast
8:55 AM 46.9 °F - 46.9 °F 100% 29.93 in 10.0 mi SSW 3.5 mph - N/A   Overcast
9:23 AM 48.2 °F - 46.4 °F 93% 29.91 in 10.0 mi SSW 8.1 mph - N/A   Scattered Clouds
9:41 AM 50.0 °F - 48.2 °F 94% 29.91 in 10.0 mi South 8.1 mph - N/A   Mostly Cloudy
9:55 AM 52.0 °F - 48.0 °F 86% 29.92 in 10.0 mi South 9.2 mph - N/A   Mostly Cloudy
10:55 AM 59.0 °F - 52.0 °F 78% 29.91 in 10.0 mi SW 10.4 mph 18.4 mph N/A   Overcast
11:55 AM 63.0 °F - 53.1 °F 70% 29.88 in 10.0 mi SSW 10.4 mph 19.6 mph N/A   Mostly Cloudy
12:55 PM 68.0 °F - 52.0 °F 56% 29.83 in 10.0 mi SSW 16.1 mph 29.9 mph N/A   Mostly Cloudy
1:55 PM 70.0 °F - 52.0 °F 53% 29.79 in 10.0 mi SSW 12.7 mph 25.3 mph N/A   Clear
2:55 PM 69.1 °F - 52.0 °F 54% 29.83 in 10.0 mi WSW 15.0 mph 27.6 mph N/A   Overcast
3:55 PM 69.1 °F - 53.1 °F 57% 29.83 in 10.0 mi West 11.5 mph - N/A   Overcast
4:55 PM 70.0 °F - 52.0 °F 53% 29.86 in 10.0 mi WNW 11.5 mph - N/A   Partly Cloudy
5:55 PM 66.0 °F - 51.1 °F 59% 29.88 in 10.0 mi WNW 8.1 mph - N/A   Clear
6:55 PM 61.0 °F - 50.0 °F 67% 29.91 in 10.0 mi West 5.8 mph - N/A   Clear
7:55 PM 61.0 °F - 46.0 °F 58% 29.95 in 10.0 mi NW 9.2 mph - N/A   Clear
8:15 PM - - - N/A% - - North - - N/A   Unknown
8:55 PM 57.9 °F - 37.0 °F 46% 29.99 in 10.0 mi NNW 8.1 mph - N/A   Clear
9:55 PM 57.0 °F - 33.1 °F 40% 30.03 in 10.0 mi NNW 8.1 mph - N/A   Clear
10:55 PM 55.0 °F - 28.9 °F 37% 30.04 in 10.0 mi NNW 6.9 mph - N/A   Clear
11:55 PM 48.9 °F - 30.9 °F 50% 30.04 in 10.0 mi North 6.9 mph - N/A   Clear